Location: Alsip
(41.6689°N, 87.7387°W)
Time: 15:13:03
(UTC+00:00)

Terra - Pass Details

Date: 14 July 2020
Orbit: 701 x 703 km, 98.2° (Epoch: 13 August)

Event Time Altitude Azimuth Distance (km) Brightness Sun altitude
Exits shadow 03:57:01 46° 180° (S) 948 2.1 -20.9°
Maximum altitude 03:58:27 78° 257° (WSW) 723 1.8 -21.0°
Drops below altitude 10° 04:03:14 10° 344° (NNW) 2,179 5.5 -21.5°
Sets 04:05:30 0° 346° (NNW) 3,101 6.5 -21.7°
